User: anonymous   Login
Location: Unspecified
(0.0000°N, 0.0000°E)
Time: 06:48:40
(UTC+00:00)
Language:

STSS DEMO 1 (USA 208) - Orbit

View from above orbital plane
View from above orbital plane
View from above satellite
View from above satellite

Ground track
Ground track

The orbit data is extracted from the following two-line orbital elements,

1 35937U 09052A   16335.73359750 0.00000000  00000-0  00000-0 0    03
2 35937  57.9887 200.4022 0018464 101.8286 258.1713 12.79321913    07
Epoch (UTC): 30 November 2016 17:36:22
Eccentricity: 0.0018464
inclination: 57.9887°
perigee height: 1330 km
apogee height: 1358 km
right ascension of ascending node: 200.4022°
argument of perigee: 101.8286°
revolutions per day: 12.79321913
mean anomaly at epoch: 258.1713°
orbit number at epoch: 0

The dashed part of the orbit path shows where the satellite is in the earth's shadow,  

DLR